[[{"header":{"parameterUnit":"m.s-1","parameterCategory":1,"la1":30.2991,"la2":30.254,"lo1":-89.0895,"lo2":-89.0444,"dy":0.0017,"dx":0.0017,"nx":28,"ny":28,"refTime":"2025-05-14T21:00:00:Z","depth":0,"parameterNumber":2,"parameterNumberName":"U-component_of_WINDS"},"data":[0,0,0,0,0,0,0,0,0,0,0,0,0,0,0,0,0,0,0,0,0,0,0,0,0,0,0,0,0,0,0,0,0,0,0,0,0,0,0,0,0,0,0,0,0,0,0,0,0,0,0,0,0,0,0,0,0,0,-0.3497,-0.3496,0,-0.344,-0.344,-0.3439,-0.3393,-0.3393,-0.3392,-0.3392,-0.3333,-0.3332,-0.3331,0,0,0,0,0,0,0,0,0,0,0,0,0,-0.3559,-0.3558,-0.3497,-0.3496,-0.3495,-0.3441,-0.344,-0.3439,-0.3393,-0.3393,-0.3392,-0.3392,-0.3333,-0.3332,-0.3331,0,0,0,0,0,0,0,0,0,0,0,0,0,-0.352,-0.3558,-0.3497,-0.3466,-0.3463,-0.3441,-0.344,-0.3439,-0.3394,-0.3393,-0.3392,-0.3391,-0.3334,-0.3332,-0.3331,-0.3334,0,0,-0.3325,-0.3325,0,0,0,0,0,0,0,0,-0.3523,-0.3518,-0.3471,-0.3468,-0.3464,-0.3423,-0.344,-0.3404,-0.3394,-0.342,-0.3392,-0.3391,-0.3363,-0.3359,-0.335,-0.3331,-0.3329,-0.3325,-0.3324,-0.3323,-0.3323,0,0,0,0,0,0,0,-0.3525,-0.352,-0.3474,-0.3471,-0.3466,-0.3453,-0.3447,-0.3433,-0.3396,-0.3417,-0.3414,-0.3408,-0.3361,-0.3352,-0.3349,-0.3328,-0.3325,-0.3324,-0.3323,-0.3322,-0.3303,-0.3304,0,0,0,0,0,0,-0.3533,-0.3523,-0.3476,-0.3473,-0.3492,-0.3453,-0.3446,-0.3437,-0.3396,-0.3389,-0.3409,-0.3406,-0.3355,-0.3351,-0.3346,-0.3345,-0.3323,-0.3322,-0.3321,-0.3303,-0.3303,-0.3304,0,0,0,0,0,0,-0.3535,-0.353,-0.3478,-0.3497,-0.3489,-0.3452,-0.3443,-0.3436,-0.3427,-0.339,-0.3383,-0.3406,-0.3355,-0.3349,-0.3336,-0.3342,-0.3321,-0.332,-0.3302,-0.3303,-0.3304,-0.3343,0,0,0,0,0,0,-0.3537,-0.3531,-0.3533,-0.3497,-0.3488,-0.3471,-0.3444,-0.3436,-0.3424,-0.342,-0.3385,-0.3379,-0.3354,-0.3339,-0.3335,-0.3339,-0.3318,-0.3301,-0.3302,-0.3303,-0.3341,-0.3345,-0.3349,0,0,0,0,0,-0.3539,-0.3548,-0.3534,-0.3528,-0.3491,-0.3472,-0.3467,-0.3438,-0.3425,-0.3426,-0.3401,-0.338,-0.3342,-0.3338,-0.3333,-0.3337,-0.3301,-0.3302,-0.3303,-0.334,-0.3345,-0.3349,0,0,0,0,0,0,-0.3586,-0.3543,-0.3527,-0.3524,-0.3502,-0.3464,-0.3465,-0.3445,-0.3426,-0.3423,-0.3387,-0.3379,-0.337,-0.3352,-0.3349,-0.3335,-0.3318,-0.3318,-0.3348,-0.3352,-0.3356,-0.336,-0.3317,0,0,0,0,0,-0.3596,-0.3585,-0.3547,-0.3548,-0.3538,-0.3503,-0.3494,-0.3473,-0.3448,-0.3439,-0.3413,-0.339,-0.3371,-0.3361,-0.3343,-0.3338,-0.3328,-0.3338,-0.3341,-0.3345,-0.3345,-0.3337,-0.334,-0.3308,-0.3308,-0.3308,0,0,-0.3617,-0.3591,-0.3587,-0.3557,-0.3537,-0.3524,-0.3496,-0.3485,-0.3474,-0.3437,-0.3423,-0.3403,-0.3374,-0.3364,-0.3359,-0.3349,-0.3351,-0.3346,-0.3349,-0.3348,-0.3338,-0.3341,-0.3344,-0.3308,-0.3308,-0.3308,0,0,-0.3648,-0.3629,-0.3625,-0.3605,-0.3575,-0.3552,-0.3551,-0.3515,-0.35,-0.3485,-0.3455,-0.3441,-0.3413,-0.3391,-0.3377,-0.3394,-0.3372,-0.3388,-0.3408,-0.3401,-0.3403,-0.3405,-0.3408,-0.341,-0.3389,-0.3389,-0.3389,0,-0.3677,-0.3658,-0.3626,-0.3616,-0.3601,-0.3565,-0.356,-0.3542,-0.3508,-0.3498,-0.3487,-0.3447,-0.3425,-0.3408,-0.3411,-0.3401,-0.3397,-0.3393,-0.3405,-0.3407,-0.3409,-0.3411,-0.3413,-0.3391,-0.3391,-0.3391,-0.3391,0,-0.3694,-0.3681,-0.3681,-0.3648,-0.3633,-0.3626,-0.359,-0.3579,-0.3558,-0.3534,-0.3517,-0.3488,-0.3462,-0.3456,-0.3436,-0.3434,-0.3429,-0.3413,-0.3395,-0.3414,-0.3416,-0.3417,-0.3394,-0.3393,-0.3393,-0.3392,0,0,-0.3756,-0.3702,-0.3702,-0.3684,-0.3646,-0.3635,-0.3623,-0.3596,-0.3586,-0.3562,-0.355,-0.3523,-0.3506,-0.349,-0.3466,-0.346,-0.347,-0.3443,-0.3442,-0.3448,-0.3463,-0.3475,-0.3477,-0.3455,-0.3455,-0.3455,-0.3464,0,-0.3779,-0.3758,-0.3726,-0.3715,-0.37,-0.3663,-0.3652,-0.3626,-0.3602,-0.3584,-0.3557,-0.3538,-0.3519,-0.3508,-0.35,-0.3471,-0.3473,-0.347,-0.3441,-0.3441,-0.345,-0.3478,-0.3492,-0.3502,-0.3465,-0.3465,-0.3465,0,-0.3805,-0.3782,-0.3768,-0.3727,-0.3719,-0.3711,-0.3681,-0.3665,-0.3633,-0.3616,-0.3595,-0.3569,-0.3551,-0.3534,-0.3508,-0.3507,-0.3492,-0.3476,-0.3475,-0.3472,-0.3455,-0.3474,-0.3505,-0.3506,-0.3467,-0.3466,-0.3466,0,-0.3849,-0.3814,-0.38,-0.3786,-0.3739,-0.3732,-0.3712,-0.3679,-0.3664,-0.3637,-0.3626,-0.3598,-0.3582,-0.356,-0.3525,-0.3517,-0.3501,-0.3483,-0.3484,-0.3485,-0.3484,-0.3484,-0.3512,-0.3476,-0.3476,-0.3476,-0.3476,0,-0.3878,-0.387,-0.3818,-0.381,-0.3799,-0.3761,-0.375,-0.3726,-0.3696,-0.3681,-0.3647,-0.3632,-0.3588,-0.3567,-0.3539,-0.352,-0.3513,-0.3497,-0.349,-0.35,-0.3502,-0.349,-0.3488,-0.3476,-0.3476,-0.3476,-0.3476,0,-0.3925,-0.3891,-0.3873,-0.3828,-0.3816,-0.3809,-0.377,-0.3758,-0.3731,-0.3711,-0.3704,-0.3661,-0.3634,-0.3597,-0.3559,-0.354,-0.3524,-0.3513,-0.3535,-0.353,-0.3533,-0.3533,-0.3554,-0.3554,-0.352,-0.352,-0.352,0,-0.3946,-0.3939,-0.3892,-0.3879,-0.386,-0.384,-0.3822,-0.3783,-0.3766,-0.3726,-0.3719,-0.369,-0.3664,-0.3622,-0.3586,-0.3556,-0.3543,-0.3552,-0.3539,-0.3547,-0.3541,-0.3542,-0.3539,-0.3556,-0.3557,-0.3557,-0.3558,0,-0.3986,-0.3967,-0.3945,-0.3915,-0.3896,-0.387,-0.3843,-0.3834,-0.3788,-0.377,-0.3742,-0.3722,-0.3682,-0.3652,-0.3616,-0.3592,-0.3566,-0.3562,-0.356,-0.3571,-0.3583,-0.3574,-0.3543,-0.3562,-0.3562,-0.3561,-0.3561,-0.3561,-0.4019,-0.4009,-0.3974,-0.3949,-0.3923,-0.3898,-0.3884,-0.3853,-0.383,-0.3794,-0.3771,-0.3743,-0.3706,-0.3655,-0.3632,-0.3608,-0.3598,-0.3597,-0.3596,-0.3596,-0.3598,-0.3587,-0.3602,-0.3601,-0.3601,-0.3601,-0.3601,0,-0.4055,-0.4029,-0.4006,-0.3968,-0.3947,-0.3924,-0.3891,-0.3875,-0.3851,-0.3819,-0.3794,-0.3759,-0.3728,-0.3689,-0.3654,-0.3643,-0.3629,-0.3635,-0.3635,-0.3629,-0.361,-0.3614,-0.3646,-0.3646,-0.3646,-0.3646,-0.3646,-0.3646,-0.4071,-0.4053,-0.403,-0.3997,-0.397,-0.3943,-0.3926,-0.3901,-0.3875,-0.3838,-0.3812,-0.3786,-0.3749,-0.3711,-0.3681,-0.367,-0.3658,-0.3667,-0.3652,-0.3635,-0.3631,-0.3627,-0.3631,-0.3665,-0.3665,-0.3672,-0.3672,-0.3673]},{"header":{"parameterUnit":"m.s-1","parameterCategory":1,"la1":30.2991,"la2":30.254,"lo1":-89.0895,"lo2":-89.0444,"dy":0.0017,"dx":0.0017,"nx":28,"ny":28,"refTime":"2025-05-14T21:00:00:Z","depth":0,"parameterNumber":3,"parameterNumberName":"V-component_of_WINDS"},"data":[0,0,0,0,0,0,0,0,0,0,0,0,0,0,0,0,0,0,0,0,0,0,0,0,0,0,0,0,0,0,0,0,0,0,0,0,0,0,0,0,0,0,0,0,0,0,0,0,0,0,0,0,0,0,0,0,0,0,4.3193,4.3193,0,4.3202,4.3203,4.3203,4.3218,4.3218,4.3218,4.3219,4.3221,4.3221,4.3221,0,0,0,0,0,0,0,0,0,0,0,0,0,4.3183,4.3183,4.3193,4.3193,4.3193,4.3202,4.3203,4.3203,4.3218,4.3218,4.3218,4.3219,4.3221,4.3221,4.3221,0,0,0,0,0,0,0,0,0,0,0,0,0,4.3189,4.3183,4.3193,4.3202,4.3203,4.3202,4.3203,4.3203,4.3218,4.3218,4.3218,4.3219,4.3221,4.3221,4.3221,4.321,0,0,4.322,4.322,0,0,0,0,0,0,0,0,4.3189,4.319,4.32,4.3201,4.3202,4.321,4.32,4.3205,4.3217,4.3212,4.3219,4.3219,4.3216,4.3217,4.3217,4.321,4.321,4.322,4.322,4.322,4.3219,0,0,0,0,0,0,0,4.3188,4.3189,4.3196,4.32,4.3202,4.3204,4.3205,4.3201,4.3211,4.3212,4.3213,4.3215,4.3217,4.3217,4.3217,4.321,4.322,4.322,4.3219,4.3219,4.3198,4.3198,0,0,0,0,0,0,4.3188,4.3189,4.3196,4.3197,4.3197,4.3204,4.3205,4.3207,4.3211,4.3213,4.3214,4.3215,4.3218,4.3218,4.3218,4.3207,4.322,4.3219,4.3219,4.3199,4.3198,4.3198,0,0,0,0,0,0,4.3187,4.3188,4.3196,4.3193,4.3194,4.3204,4.3205,4.3207,4.3207,4.3213,4.3214,4.3213,4.3218,4.3218,4.3213,4.3208,4.3219,4.3219,4.3199,4.3199,4.3198,4.3186,0,0,0,0,0,0,4.3187,4.3188,4.3185,4.3193,4.3195,4.3192,4.3204,4.3206,4.3207,4.3209,4.3212,4.3213,4.3218,4.3214,4.3213,4.3207,4.3219,4.32,4.3199,4.3198,4.3187,4.3185,4.3183,0,0,0,0,0,4.3187,4.3178,4.3184,4.3185,4.3191,4.3192,4.3192,4.3201,4.3207,4.3203,4.3208,4.3213,4.3209,4.3213,4.3212,4.3207,4.32,4.3199,4.3198,4.3187,4.3185,4.3183,0,0,0,0,0,0,4.3165,4.318,4.3186,4.3181,4.3186,4.3194,4.319,4.3197,4.3198,4.3199,4.3207,4.3208,4.3202,4.3204,4.3208,4.3198,4.3205,4.3204,4.3197,4.3195,4.3194,4.3193,4.3218,0,0,0,0,0,4.3161,4.3162,4.3174,4.3168,4.317,4.318,4.3181,4.3187,4.3191,4.3192,4.3196,4.3198,4.3197,4.3196,4.3196,4.3187,4.3189,4.3183,4.3182,4.318,4.3179,4.3177,4.3175,4.3195,4.3195,4.3195,0,0,4.315,4.3158,4.3158,4.3164,4.3168,4.3169,4.3181,4.318,4.318,4.3191,4.3188,4.3191,4.3194,4.3188,4.3186,4.3189,4.3174,4.3179,4.3178,4.3178,4.3176,4.3174,4.3172,4.3194,4.3195,4.3195,0,0,4.3131,4.3137,4.3134,4.314,4.3147,4.3154,4.3154,4.3163,4.3166,4.3164,4.3173,4.3173,4.3171,4.3173,4.3174,4.3161,4.3166,4.316,4.3151,4.3149,4.3147,4.3146,4.3142,4.314,4.3159,4.3159,4.3159,0,4.3115,4.3118,4.3131,4.3131,4.3134,4.3148,4.3145,4.3149,4.3155,4.3156,4.3161,4.3161,4.3164,4.316,4.3157,4.3157,4.3157,4.3159,4.3147,4.3145,4.3144,4.3141,4.3139,4.3158,4.3158,4.3158,4.3158,0,4.31,4.3102,4.3099,4.3109,4.3111,4.3109,4.3121,4.3122,4.3129,4.3136,4.3134,4.3139,4.3141,4.314,4.3145,4.3138,4.314,4.3146,4.3153,4.3142,4.3139,4.3137,4.3157,4.3157,4.3158,4.3158,0,0,4.3065,4.3086,4.3084,4.309,4.3101,4.3102,4.3102,4.3107,4.3108,4.3112,4.3112,4.3113,4.3119,4.312,4.3126,4.3125,4.3116,4.3131,4.3131,4.3129,4.3109,4.3105,4.3104,4.312,4.312,4.312,4.311,0,4.3048,4.3051,4.3064,4.3062,4.3065,4.308,4.308,4.3086,4.3093,4.3095,4.3102,4.3103,4.3111,4.3112,4.3111,4.3117,4.3112,4.3118,4.3119,4.3119,4.3118,4.3102,4.3097,4.3087,4.3108,4.3108,4.3108,0,4.3029,4.3037,4.3036,4.3051,4.3052,4.3052,4.306,4.3062,4.307,4.3075,4.3079,4.3087,4.3087,4.3095,4.3096,4.31,4.3101,4.3104,4.3104,4.3104,4.3113,4.3102,4.3083,4.3082,4.3106,4.3106,4.3106,0,4.3005,4.3015,4.3017,4.3021,4.3038,4.3038,4.3044,4.3053,4.3057,4.3062,4.3065,4.3069,4.3072,4.3075,4.3084,4.3089,4.3084,4.3092,4.3088,4.3088,4.3085,4.3085,4.3067,4.3086,4.3086,4.3086,4.3086,0,4.2985,4.2984,4.3007,4.3008,4.3008,4.3023,4.3022,4.303,4.3038,4.3041,4.3053,4.3054,4.3067,4.307,4.3077,4.3077,4.3077,4.3081,4.3083,4.308,4.308,4.3081,4.3082,4.3086,4.3086,4.3086,4.3086,0,4.2957,4.2973,4.2976,4.2993,4.2998,4.2997,4.3012,4.3013,4.3022,4.3025,4.3026,4.304,4.3044,4.3055,4.306,4.3065,4.3064,4.3067,4.3062,4.3063,4.3059,4.3059,4.3041,4.304,4.3059,4.3058,4.3058,0,4.2944,4.2944,4.2963,4.2968,4.2975,4.298,4.2985,4.3001,4.3005,4.3017,4.3016,4.3023,4.3028,4.3035,4.3044,4.3049,4.3053,4.3046,4.3053,4.3051,4.3054,4.3054,4.3054,4.3044,4.3044,4.3044,4.3043,0,4.2918,4.2927,4.2935,4.2946,4.2952,4.2961,4.297,4.2972,4.299,4.2994,4.3,4.3005,4.3014,4.302,4.3027,4.3032,4.3041,4.3042,4.3041,4.3038,4.3036,4.3038,4.3058,4.3041,4.3042,4.3042,4.3042,4.3042,4.2898,4.29,4.2915,4.2924,4.2934,4.2943,4.2946,4.2958,4.2964,4.2975,4.2983,4.2989,4.2999,4.3011,4.3016,4.3021,4.3025,4.3023,4.3023,4.3023,4.3022,4.3036,4.3022,4.3022,4.3022,4.3022,4.3022,0,4.2874,4.2885,4.2894,4.2909,4.2916,4.2927,4.2938,4.2943,4.295,4.296,4.2967,4.2975,4.2982,4.2994,4.3001,4.3003,4.3007,4.3004,4.3004,4.3006,4.3017,4.3018,4.3001,4.3001,4.3001,4.3001,4.3001,4.3001,4.2862,4.2868,4.2879,4.2889,4.29,4.2909,4.2915,4.2924,4.2933,4.2943,4.295,4.2959,4.2969,4.2979,4.2986,4.2989,4.2991,4.2988,4.2992,4.3002,4.3004,4.3006,4.3007,4.2988,4.2988,4.298,4.298,4.298]}]]